Location: Unspecified
(0.0000°N, 0.0000°E)
Time: 12:33:51
(UTC+00:00)

S-56A Canister/Altair - Pass Details

Date: 01 December 2023
Orbit: 640 x 2488 km, 38.9° (Epoch: 24 February)

Event Time Altitude Azimuth Distance (km) Brightness Sun altitude
Rises 21:59:07 0° 294° (WNW) 4,829 11.8 -55.4°
Reaches altitude 10° 22:02:07 10° 288° (WNW) 4,073 11.3 -56.0°
Enters shadow 22:04:54 21° 280° (W) 3,459 10.9 -56.5°
Exits shadow 22:22:08 23° 158° (SSE) 4,051 11.1 -59.5°
Drops below altitude 10° 22:27:01 10° 148° (SSE) 5,142 11.7 -60.4°
Sets 22:31:24 0° 142° (SE) 6,159 12.2 -61.1°
